Location: O'Brien
(30.0517°N, 82.9900°W)
Time: 15:55:16
(UTC-05:00)

Hubble Space Telescope - Pass Details

Date: 29 October 2019
Orbit: 536 x 540 km, 28.5° (Epoch: 10 November)

Event Time Altitude Azimuth Distance (km) Brightness Sun altitude
Exits shadow 07:03:28 - 247° (WSW) 1,944 3.1 -9.3°
Reaches altitude 10° 07:03:54 10° 246° (WSW) 1,777 2.9 -9.2°
Maximum altitude 07:07:55 53° 169° (S) 654 1.3 -8.3°
Drops below altitude 10° 07:11:56 10° 92° (E) 1,778 5.1 -7.5°
Sets 07:14:14 0° 87° (E) 2,669 6.2 -7.0°
